FENGYUN 2G AKM

Satellite information

Favourite Embed

Satellite Type and Status

ROCKET BODYIN ORBIT

Key statistics

Satellite FENGYUN 2G AKM at a glance.

Uptime

3779

Days in orbit

Revolutions

≈ 1.0

Per day

Orbit

OTHER

Other

Inclination

6.5

Latest

Satellite identification and parameters

Extended collection of information and parameters for FENGYUN 2G AKM.

Object identification

Identified? True

Debris? False

Object name: FENGYUN 2G AKM

International designator: 2014-090C

Object number (NORAD): 40369

Object ID (CCSDS): 40369

Country: PEOPLES REPUBLIC OF CHINA (PRC)

Current information (Y/N): Y

Orbital parameters

Period: 1445.897 minutes

Inclination: 6.5282 deg

SMA: 42356.349 km

Apoapsis: 36172.07 km

Periapsis: 35784.357 km

RAAN: 73.5505 deg

Eccentricy: 0.0045768

Argument of periapsis: 161.9041 deg

Mean anomaly: 198.179 deg

Mean motion: 0.99592122 rev/day

Mean motion (dot): -0.00000319 rev/day2

B* drag term: 0.0 1/REarth

Two-line elements (TLE)

Creation date: May 6, 2025, 3:54 a.m.

Reference frame: TEME

Reference center: EARTH

Epoch: May 5, 2025, 4:20 a.m. UTC

TLE line 0: 0 FENGYUN 2G AKM

TLE line 1: 1 40369U 14090C 25125.18086938 -.00000319 00000-0 00000-0 0 9998

TLE line 2: 2 40369 6.5282 73.5505 0045768 161.9041 198.1790 0.99592122 37570

Live tracking on map

Real-time ground track for satellite FENGYUN 2G AKM.

In-orbit conjunctions

A list of the most updated potential collisions computed for object FENGYUN 2G AKM.

Target Orbit TCA Probability of collision Miss distance Type
SL-12 R/B(2) OTHER 2025-03-03 11:48:31 TBA 3759.0 (m) ROCKET BODY

Associated space launch

FENGYUN 2G AKM was lifted into orbit during the mission ‘Long March 3A | Fengyun 2-08’, on board a Long March 3A space rocket.

The launch took place on Dec. 31, 2014, 1:02 a.m. from Launch Complex 2 (LC-2).

For more information about the launch, click the button.

Launch to space Long March 3A | Fengyun 2-08
Long March 3A | Fengyun 2-08

Agency: N/A

Status: Launch Successful

Launch date: Dec. 31, 2014, 1:02 a.m. UTC

Rocket: Long March 3A

Launch pad: Launch Complex 2 (LC-2)

Location: Xichang Satellite Launch Center, People's Republic of China

...

Latest news about this satellite

There are no fresh news available about this satellite. Check back as we update our databases every day.


Newsletter sign-up

Weekly statistics, charts and insights to help you stay on top of the space industry.